Location: Kalberh�ni
(46.4610°N, 7.2453°E)
Time: 16:47:54
(UTC+00:00)

Meteor 2-1 Rocket - Pass Details

Date: 27 October 2021
Orbit: 830 x 906 km, 81.3° (Epoch: 28 November)

Event Time Altitude Azimuth Distance (km) Brightness Sun altitude
Rises 04:17:09 0° 1° (N) 3,387 7.4 -19.2°
Reaches altitude 10° 04:20:22 10° 20° (NNE) 2,453 6.9 -18.6°
Maximum altitude 04:24:07 18° 62° (ENE) 1,939 6.9 -18.0°
Drops below altitude 10° 04:27:52 10° 105° (ESE) 2,462 7.8 -17.3°
Sets 04:31:05 0° 124° (SE) 3,405 8.3 -16.8°
